Weather Service Report


387 
ASUS41 KPHI 211210
RWRPHI

REGIONAL WEATHER ROUNDUP
NATIONAL WEATHER SERVICE MOUNT HOLLY NJ
700 AM EST SUN DEC 21 2014

NOTE:  "FAIR" INDICATES FEW OR NO CLOUDS BELOW 12,000 FEET WITH NO
SIGNIFICANT WEATHER AND/OR OBSTRUCTIONS TO VISIBILITY.

 * = STATION DOES NOT REPORT PRECIPITATION (E.G. RAIN, SNOW, ETC.) 
        OR FOG.

NJZ015>026-211300-
SOUTHERN NEW JERSEY
  
CITY           SKY/WX    TMP DP  RH WIND       PRES   REMARKS
POMONA         CLOUDY    28  23  81 NW3       30.32R                  
6HR MIN TEMP:  26; 6HR MAX TEMP:  30;                                

RIO GRANDE*    CLOUDY    30  25  80 CALM      30.32R                  
MILLVILLE      CLOUDY    30  25  81 CALM      30.32R                  
WRIGHTSTOWN    CLOUDY    30  22  74 W5        30.28R WCI  25          
MOUNT HOLLY    CLOUDY    30  23  75 CALM      30.32R                  
TRENTON        CLOUDY    30  21  69 W5        30.30R WCI  25          
6HR MIN TEMP:  29; 6HR MAX TEMP:  30;                                


$$
NJZ001>014-211300-
NORTHERN NEW JERSEY
  
CITY           SKY/WX    TMP DP  RH WIND       PRES   REMARKS
SUSSEX         CLOUDY    28  25  88 NE3       30.29R                  
ANDOVER*         N/A     28  25  88 NE3       30.28R                  
MORRISTOWN     CLOUDY    32  27  80 N5        30.30R WCI  27          
NEWARK         CLOUDY    32  25  75 NW7       30.30R WCI  26          
TETERBORO      CLOUDY    31  25  78 NW6       30.30R WCI  25          
CALDWELL       CLOUDY    30  25  81 CALM      30.30R                  
SOMERVILLE     CLOUDY    32  23  69 CALM      30.29R                  
ALLAIRE*       MOCLDY    30  18  59 W5        30.29R WCI  25          
TOMS RIVER*    MOCLDY    27  25  93 W3        30.31R                  

$$
PAZ043-044-047-054-055-060>062-066>071-211300-
EASTERN PENNSYLVANIA
  
CITY           SKY/WX    TMP DP  RH WIND       PRES   REMARKS
PHILADELPHIA   MOCLDY    31  22  69 NW3       30.33R                  
6HR MIN TEMP:  31; 6HR MAX TEMP:  35;                                

NORTH PHILA    CLOUDY    32  21  64 NW3       30.33R                  
BLUE BELL      CLEAR     32  25  74 CALM      30.30R                  
DOYLESTOWN     CLOUDY    28  22  78 CALM      30.29R                  
QUAKERTOWN*    CLOUDY    28  23  80 CALM      30.29S                  
POTTSTOWN      CLOUDY    30  21  69 CALM      30.31S                  
LANCASTER      MOCLDY    26  22  84 W5        30.31R WCI  20          
COATESVILLE    MOCLDY    28  27  93 CALM      30.29S                  
READING        CLOUDY    30  22  72 CALM      30.30R                  
6HR MIN TEMP:  30; 6HR MAX TEMP:  31;                                

ALLENTOWN      CLOUDY    31  20  63 NW3       30.30R                  
6HR MIN TEMP:  30; 6HR MAX TEMP:  31;                                

MOUNT POCONO   CLOUDY    24  19  81 N6        30.19S WCI  17          
6HR MIN TEMP:  24; 6HR MAX TEMP:  24;                                

HAZLETON       CLOUDY    27  21  80 NW5       30.25R WCI  21          
WILKES BARRE   CLOUDY    29  20  69 N3        30.26S                  

$$
DEZALL-MDZ008-012-015-019-020-211300-
DELAWARE AND EASTERN MARYLAND
  
CITY           SKY/WX    TMP DP  RH WIND       PRES   REMARKS
WILMINGTON     CLOUDY    31  25  78 CALM      30.34R                  
6HR MIN TEMP:  28; 6HR MAX TEMP:  32;                                

DOVER          CLOUDY    32  26  80 NW3       30.31R                  
GEORGETOWN     CLOUDY    31  25  78 CALM      30.34R                  
6HR MIN TEMP:  26; 6HR MAX TEMP:  31;                                

PATUXENT       CLOUDY    34  27  75 NW6       30.33R WCI  29          
OCEAN CITY     CLOUDY    31  27  85 CALM      30.33R                  
WALLOPS ISLAND CLOUDY    33  26  75 N5        30.33R WCI  29          
CAMBRIDGE      CLOUDY    32  30  93 CALM      30.33R                  
SALISBURY      CLOUDY    33  27  78 CALM      30.33R                  

$$
PAZ001-021-NYZ056-072-MDZ011-DCZ001-211300-
OTHER NEARBY LOCATIONS
  
CITY           SKY/WX    TMP DP  RH WIND       PRES   REMARKS
HARRISBURG     PTCLDY    26  20  77 N6        30.32R WCI  19          
STATE COLLEGE  CLOUDY    27  21  80 CALM      30.27R                  
WILLIAMSPORT   CLOUDY    30  22  72 W5        30.30R WCI  25          
BINGHAMTON     CLOUDY    24  19  81 W3        30.22S                  
NEW YORK CITY  CLOUDY    31  24  75 NW5       30.31R WCI  26          
BALTIMORE      CLOUDY    32  23  69 CALM      30.33R                  
WASHINGTON DC  CLOUDY    37  23  56 N3        30.34S                  

$$

Return to Home page


Western Regional Climate Center, wrcc@dri.edu